Year,Month,Day,Hour,Minute,Value (Times are PST for temperature in C)
2009,04,26,00,00,3.20
2009,04,26,00,01,3.20
2009,04,26,00,02,3.20
2009,04,26,00,03,3.20
2009,04,26,00,04,3.20
2009,04,26,00,05,3.20
2009,04,26,00,06,3.20
2009,04,26,00,07,3.20
2009,04,26,00,08,3.20
2009,04,26,00,09,3.20
2009,04,26,00,10,3.20
2009,04,26,00,11,3.20
2009,04,26,00,12,3.20
2009,04,26,00,13,3.20
2009,04,26,00,14,3.20
2009,04,26,00,15,3.20
2009,04,26,00,16,3.20
2009,04,26,00,17,3.20
2009,04,26,00,18,3.20
2009,04,26,00,19,3.20
2009,04,26,00,20,3.20
2009,04,26,00,21,3.20
2009,04,26,00,22,3.20
2009,04,26,00,23,3.20
2009,04,26,00,24,3.20
2009,04,26,00,25,3.20
2009,04,26,00,26,3.20
2009,04,26,00,27,3.20
2009,04,26,00,28,3.10
2009,04,26,00,29,3.10
2009,04,26,00,30,3.10
2009,04,26,00,31,3.10
2009,04,26,00,32,3.10
2009,04,26,00,33,3.10
2009,04,26,00,34,3.10
2009,04,26,00,35,3.10
2009,04,26,00,36,3.10
2009,04,26,00,37,3.10
2009,04,26,00,38,3.10
2009,04,26,00,39,3.10
2009,04,26,00,40,3.20
2009,04,26,00,41,3.20
2009,04,26,00,42,3.20
2009,04,26,00,43,3.20
2009,04,26,00,44,3.20
2009,04,26,00,45,3.20
2009,04,26,00,46,3.20
2009,04,26,00,47,3.20
2009,04,26,00,48,3.20
2009,04,26,00,49,3.20
2009,04,26,00,50,3.20
2009,04,26,00,51,3.20
2009,04,26,00,52,3.20
2009,04,26,00,53,3.20
2009,04,26,00,54,3.20
2009,04,26,00,55,3.20
2009,04,26,00,56,3.10
2009,04,26,00,57,3.20
2009,04,26,00,58,3.10
2009,04,26,00,59,3.10
2009,04,26,01,00,3.10
2009,04,26,01,01,3.10
2009,04,26,01,02,3.10
2009,04,26,01,03,3.10
2009,04,26,01,04,3.10
2009,04,26,01,05,3.10
2009,04,26,01,06,3.10
2009,04,26,01,07,3.10
2009,04,26,01,08,3.10
2009,04,26,01,09,3.10
2009,04,26,01,10,3.00
2009,04,26,01,11,3.00
2009,04,26,01,12,3.00
2009,04,26,01,13,3.00
2009,04,26,01,14,3.00
2009,04,26,01,15,3.00
2009,04,26,01,16,3.00
2009,04,26,01,17,3.00
2009,04,26,01,18,3.00
2009,04,26,01,19,3.00
2009,04,26,01,20,2.90
2009,04,26,01,21,2.90
2009,04,26,01,22,2.90
2009,04,26,01,23,2.90
2009,04,26,01,24,2.90
2009,04,26,01,25,2.90
2009,04,26,01,26,2.90
2009,04,26,01,27,2.90
2009,04,26,01,28,2.90
2009,04,26,01,29,2.80
2009,04,26,01,30,2.80
2009,04,26,01,31,2.80
2009,04,26,01,32,2.80
2009,04,26,01,33,2.80
2009,04,26,01,34,2.80
2009,04,26,01,35,2.80
2009,04,26,01,36,2.80
2009,04,26,01,37,2.80
2009,04,26,01,38,2.80
2009,04,26,01,39,2.80
2009,04,26,01,40,2.80
2009,04,26,01,41,2.80
2009,04,26,01,42,2.80
2009,04,26,01,43,2.80
2009,04,26,01,44,2.80
2009,04,26,01,45,2.80
2009,04,26,01,46,2.80
2009,04,26,01,47,2.70
2009,04,26,01,48,2.70
2009,04,26,01,49,2.70
2009,04,26,01,50,2.70
2009,04,26,01,51,2.70
2009,04,26,01,52,2.70
2009,04,26,01,53,2.70
2009,04,26,01,54,2.70
2009,04,26,01,55,2.70
2009,04,26,01,56,2.70
2009,04,26,01,57,2.70
2009,04,26,01,58,2.70
2009,04,26,01,59,2.70
2009,04,26,02,00,2.70
2009,04,26,02,01,2.60
2009,04,26,02,02,2.60
2009,04,26,02,03,2.60
2009,04,26,02,04,2.60
2009,04,26,02,05,2.60
2009,04,26,02,06,2.60
2009,04,26,02,07,2.60
2009,04,26,02,08,2.60
2009,04,26,02,09,2.60
2009,04,26,02,10,2.60
2009,04,26,02,11,2.60
2009,04,26,02,12,2.60
2009,04,26,02,13,2.60
2009,04,26,02,14,2.60
2009,04,26,02,15,2.60
2009,04,26,02,16,2.50
2009,04,26,02,17,2.50
2009,04,26,02,18,2.50
2009,04,26,02,19,2.50
2009,04,26,02,20,2.50
2009,04,26,02,21,2.50
2009,04,26,02,22,2.50
2009,04,26,02,23,2.50
2009,04,26,02,24,2.50
2009,04,26,02,25,2.40
2009,04,26,02,26,2.50
2009,04,26,02,27,2.40
2009,04,26,02,28,2.40
2009,04,26,02,29,2.40
2009,04,26,02,30,2.40
2009,04,26,02,31,2.40
2009,04,26,02,32,2.40
2009,04,26,02,33,2.40
2009,04,26,02,34,2.40
2009,04,26,02,35,2.40
2009,04,26,02,36,2.40
2009,04,26,02,37,2.40
2009,04,26,02,38,2.40
2009,04,26,02,39,2.40
2009,04,26,02,40,2.40
2009,04,26,02,41,2.40
2009,04,26,02,42,2.40
2009,04,26,02,43,2.40
2009,04,26,02,44,2.40
2009,04,26,02,45,2.40
2009,04,26,02,46,2.40
2009,04,26,02,47,2.40
2009,04,26,02,48,2.30
2009,04,26,02,49,2.30
2009,04,26,02,50,2.30
2009,04,26,02,51,2.30
2009,04,26,02,52,2.30
2009,04,26,02,53,2.30
2009,04,26,02,54,2.30
2009,04,26,02,55,2.30
2009,04,26,02,56,2.30
2009,04,26,02,57,2.30
2009,04,26,02,58,2.30
2009,04,26,02,59,2.30
2009,04,26,03,00,2.30
2009,04,26,03,01,2.30
2009,04,26,03,02,2.20
2009,04,26,03,03,2.20
2009,04,26,03,04,2.20
2009,04,26,03,05,2.20
2009,04,26,03,06,2.20
2009,04,26,03,07,2.20
2009,04,26,03,08,2.20
2009,04,26,03,09,2.20
2009,04,26,03,10,2.20
2009,04,26,03,11,2.20
2009,04,26,03,12,2.10
2009,04,26,03,13,2.10
2009,04,26,03,14,2.10
2009,04,26,03,15,2.10
2009,04,26,03,16,2.10
2009,04,26,03,17,2.10
2009,04,26,03,18,2.10
2009,04,26,03,19,2.10
2009,04,26,03,20,2.10
2009,04,26,03,21,2.00
2009,04,26,03,22,2.00
2009,04,26,03,23,2.00
2009,04,26,03,24,2.00
2009,04,26,03,25,2.00
2009,04,26,03,26,2.00
2009,04,26,03,27,2.00
2009,04,26,03,28,2.00
2009,04,26,03,29,2.00
2009,04,26,03,30,2.00
2009,04,26,03,31,2.00
2009,04,26,03,32,1.90
2009,04,26,03,33,1.90
2009,04,26,03,34,1.90
2009,04,26,03,35,1.90
2009,04,26,03,36,1.90
2009,04,26,03,37,1.90
2009,04,26,03,38,1.90
2009,04,26,03,39,1.90
2009,04,26,03,40,1.90
2009,04,26,03,41,1.90
2009,04,26,03,42,1.90
2009,04,26,03,43,1.90
2009,04,26,03,44,1.90
2009,04,26,03,45,1.90
2009,04,26,03,46,1.90
2009,04,26,03,47,1.90
2009,04,26,03,48,1.90
2009,04,26,03,49,1.90
2009,04,26,03,50,1.90
2009,04,26,03,51,1.90
2009,04,26,03,52,1.90
2009,04,26,03,53,1.80
2009,04,26,03,54,1.80
2009,04,26,03,55,1.80
2009,04,26,03,56,1.80
2009,04,26,03,57,1.80
2009,04,26,03,58,1.80
2009,04,26,03,59,1.80
2009,04,26,04,00,1.80
2009,04,26,04,01,1.80
2009,04,26,04,02,1.80
2009,04,26,04,03,1.80
2009,04,26,04,04,1.80
2009,04,26,04,05,1.80
2009,04,26,04,06,1.80
2009,04,26,04,07,1.80
2009,04,26,04,09,1.80
2009,04,26,04,10,1.80
2009,04,26,04,11,1.80
2009,04,26,04,12,1.80
2009,04,26,04,13,1.80
2009,04,26,04,14,1.80
2009,04,26,04,15,1.80
2009,04,26,04,16,1.80
2009,04,26,04,17,1.80
2009,04,26,04,18,1.80
2009,04,26,04,19,1.80
2009,04,26,04,20,1.70
2009,04,26,04,21,1.70
2009,04,26,04,22,1.70
2009,04,26,04,23,1.70
2009,04,26,04,24,1.70
2009,04,26,04,25,1.70
2009,04,26,04,26,1.70
2009,04,26,04,27,1.70
2009,04,26,04,28,1.70
2009,04,26,04,29,1.70
2009,04,26,04,30,1.70
2009,04,26,04,31,1.70
2009,04,26,04,32,1.70
2009,04,26,04,33,1.70
2009,04,26,04,34,1.70
2009,04,26,04,35,1.70
2009,04,26,04,36,1.70
2009,04,26,04,37,1.70
2009,04,26,04,38,1.70
2009,04,26,04,39,1.80
2009,04,26,04,40,1.80
2009,04,26,04,41,1.80
2009,04,26,04,42,1.80
2009,04,26,04,43,1.80
2009,04,26,04,44,1.80
2009,04,26,04,45,1.80
2009,04,26,04,46,1.80
2009,04,26,04,47,1.80
2009,04,26,04,48,1.80
2009,04,26,04,49,1.80
2009,04,26,04,50,1.80
2009,04,26,04,51,1.80
2009,04,26,04,52,1.80
2009,04,26,04,53,1.80
2009,04,26,04,54,1.80
2009,04,26,04,55,1.80
2009,04,26,04,56,1.70
2009,04,26,04,57,1.70
2009,04,26,04,58,1.70
2009,04,26,04,59,1.70
2009,04,26,05,00,1.70
2009,04,26,05,01,1.70
2009,04,26,05,02,1.70
2009,04,26,05,03,1.70
2009,04,26,05,04,1.70
2009,04,26,05,05,1.70
2009,04,26,05,06,1.70
2009,04,26,05,07,1.70
2009,04,26,05,08,1.70
2009,04,26,05,09,1.70
2009,04,26,05,10,1.60
2009,04,26,05,11,1.60
2009,04,26,05,12,1.60
2009,04,26,05,13,1.60
2009,04,26,05,14,1.60
2009,04,26,05,15,1.60
2009,04,26,05,16,1.60
2009,04,26,05,17,1.60
2009,04,26,05,18,1.60
2009,04,26,05,19,1.60
2009,04,26,05,20,1.60
2009,04,26,05,21,1.60
2009,04,26,05,22,1.60
2009,04,26,05,23,1.60
2009,04,26,05,24,1.60
2009,04,26,05,25,1.60
2009,04,26,05,26,1.60
2009,04,26,05,27,1.60
2009,04,26,05,28,1.60
2009,04,26,05,29,1.60
2009,04,26,05,30,1.60
2009,04,26,05,31,1.60
2009,04,26,05,32,1.60
2009,04,26,05,33,1.60
2009,04,26,05,34,1.60
2009,04,26,05,35,1.60
2009,04,26,05,36,1.70
2009,04,26,05,37,1.70
2009,04,26,05,38,1.70
2009,04,26,05,39,1.70
2009,04,26,05,40,1.70
2009,04,26,05,41,1.70
2009,04,26,05,42,1.70
2009,04,26,05,43,1.70
2009,04,26,05,44,1.70
2009,04,26,05,45,1.70
2009,04,26,05,46,1.70
2009,04,26,05,47,1.70
2009,04,26,05,48,1.70
2009,04,26,05,49,1.70
2009,04,26,05,50,1.70
2009,04,26,05,51,1.70
2009,04,26,05,52,1.70
2009,04,26,05,53,1.70
2009,04,26,05,54,1.70
2009,04,26,05,55,1.70
2009,04,26,05,56,1.70
2009,04,26,05,57,1.70
2009,04,26,05,58,1.70
2009,04,26,05,59,1.70
2009,04,26,06,00,1.70
2009,04,26,06,01,1.70
2009,04,26,06,02,1.70
2009,04,26,06,03,1.70
2009,04,26,06,04,1.70
2009,04,26,06,05,1.70
2009,04,26,06,06,1.70
2009,04,26,06,07,1.70
2009,04,26,06,08,1.70
2009,04,26,06,09,1.70
2009,04,26,06,10,1.70
2009,04,26,06,11,1.60
2009,04,26,06,12,1.60
2009,04,26,06,13,1.60
2009,04,26,06,14,1.60
2009,04,26,06,15,1.60
2009,04,26,06,16,1.60
2009,04,26,06,17,1.60
2009,04,26,06,18,1.60
2009,04,26,06,19,1.60
2009,04,26,06,20,1.60
2009,04,26,06,21,1.60
2009,04,26,06,22,1.60
2009,04,26,06,23,1.60
2009,04,26,06,24,1.60
2009,04,26,06,25,1.60
2009,04,26,06,26,1.60
2009,04,26,06,27,1.60
2009,04,26,06,28,1.60
2009,04,26,06,29,1.60
2009,04,26,06,30,1.60
2009,04,26,06,31,1.60
2009,04,26,06,32,1.60
2009,04,26,06,33,1.60
2009,04,26,06,34,1.60
2009,04,26,06,35,1.60
2009,04,26,06,36,1.60
2009,04,26,06,37,1.60
2009,04,26,06,38,1.60
2009,04,26,06,39,1.60
2009,04,26,06,40,1.60
2009,04,26,06,41,1.60
2009,04,26,06,42,1.60
2009,04,26,06,43,1.60
2009,04,26,06,44,1.60
2009,04,26,06,45,1.70
2009,04,26,06,46,1.70
2009,04,26,06,47,1.70
2009,04,26,06,48,1.70
2009,04,26,06,49,1.70
2009,04,26,06,50,1.70
2009,04,26,06,51,1.70
2009,04,26,06,52,1.80
2009,04,26,06,53,1.80
2009,04,26,06,54,1.80
2009,04,26,06,55,1.80
2009,04,26,06,56,1.80
2009,04,26,06,57,1.80
2009,04,26,06,58,1.80
2009,04,26,06,59,1.90
2009,04,26,07,00,1.90
2009,04,26,07,01,1.90
2009,04,26,07,02,1.90
2009,04,26,07,03,1.90
2009,04,26,07,04,2.00
2009,04,26,07,05,2.00
2009,04,26,07,06,2.00
2009,04,26,07,07,2.00
2009,04,26,07,08,2.10
2009,04,26,07,09,2.10
2009,04,26,07,10,2.10
2009,04,26,07,11,2.10
2009,04,26,07,12,2.10
2009,04,26,07,13,2.10
2009,04,26,07,14,2.10
2009,04,26,07,15,2.20
2009,04,26,07,16,2.20
2009,04,26,07,17,2.20
2009,04,26,07,18,2.20
2009,04,26,07,19,2.20
2009,04,26,07,20,2.20
2009,04,26,07,21,2.30
2009,04,26,07,22,2.30
2009,04,26,07,23,2.30
2009,04,26,07,24,2.30
2009,04,26,07,25,2.30
2009,04,26,07,26,2.30
2009,04,26,07,27,2.30
2009,04,26,07,28,2.40
2009,04,26,07,29,2.40
2009,04,26,07,30,2.40
2009,04,26,07,31,2.40
2009,04,26,07,32,2.50
2009,04,26,07,33,2.50
2009,04,26,07,34,2.50
2009,04,26,07,35,2.60
2009,04,26,07,36,2.60
2009,04,26,07,37,2.60
2009,04,26,07,38,2.60
2009,04,26,07,39,2.60
2009,04,26,07,40,2.70
2009,04,26,07,41,2.70
2009,04,26,07,42,2.80
2009,04,26,07,43,2.80
2009,04,26,07,44,2.80
2009,04,26,07,45,2.80
2009,04,26,07,46,2.90
2009,04,26,07,47,2.90
2009,04,26,07,48,2.90
2009,04,26,07,49,3.00
2009,04,26,07,50,3.00
2009,04,26,07,51,3.10
2009,04,26,07,52,3.10
2009,04,26,07,53,3.20
2009,04,26,07,54,3.20
2009,04,26,07,55,3.20
2009,04,26,07,56,3.30
2009,04,26,07,57,3.30
2009,04,26,07,58,3.30
2009,04,26,07,59,3.40
2009,04,26,08,00,3.40
2009,04,26,08,01,3.50
2009,04,26,08,02,3.60
2009,04,26,08,03,3.60
2009,04,26,08,04,3.70
2009,04,26,08,05,3.70
2009,04,26,08,06,3.70
2009,04,26,08,07,3.80
2009,04,26,08,08,3.80
2009,04,26,08,09,3.90
2009,04,26,08,10,4.00
2009,04,26,08,11,4.10
2009,04,26,08,12,4.20
2009,04,26,08,13,4.20
2009,04,26,08,14,4.30
2009,04,26,08,15,4.40
2009,04,26,08,16,4.60
2009,04,26,08,17,4.70
2009,04,26,08,18,4.80
2009,04,26,08,19,4.90
2009,04,26,08,20,5.10
2009,04,26,08,21,5.20
2009,04,26,08,22,5.30
2009,04,26,08,23,5.40
2009,04,26,08,24,5.50
2009,04,26,08,25,5.60
2009,04,26,08,26,5.70
2009,04,26,08,27,5.90
2009,04,26,08,28,6.00
2009,04,26,08,29,6.10
2009,04,26,08,30,6.20
2009,04,26,08,31,6.40
2009,04,26,08,32,6.40
2009,04,26,08,33,6.70
2009,04,26,08,34,6.90
2009,04,26,08,35,7.10
2009,04,26,08,36,7.20
2009,04,26,08,37,7.30
2009,04,26,08,38,7.50
2009,04,26,08,39,7.70
2009,04,26,08,40,7.80
2009,04,26,08,41,7.90
2009,04,26,08,42,8.00
2009,04,26,08,43,8.10
2009,04,26,08,44,8.20
2009,04,26,08,45,8.30
2009,04,26,08,46,8.40
2009,04,26,08,47,8.50
2009,04,26,08,48,8.60
2009,04,26,08,49,8.60
2009,04,26,08,50,8.70
2009,04,26,08,51,8.70
2009,04,26,08,52,8.80
2009,04,26,08,53,8.80
2009,04,26,08,54,8.90
2009,04,26,08,55,8.90
2009,04,26,08,56,9.00
2009,04,26,08,57,9.10
2009,04,26,08,58,9.10
2009,04,26,08,59,9.10
2009,04,26,09,00,9.10
2009,04,26,09,01,9.10
2009,04,26,09,02,9.20
2009,04,26,09,03,9.20
2009,04,26,09,04,9.20
2009,04,26,09,05,9.30
2009,04,26,09,06,9.30
2009,04,26,09,07,9.40
2009,04,26,09,08,9.40
2009,04,26,09,09,9.40
2009,04,26,09,10,9.40
2009,04,26,09,11,9.40
2009,04,26,09,12,9.40
2009,04,26,09,13,9.40
2009,04,26,09,14,9.40
2009,04,26,09,15,9.40
2009,04,26,09,16,9.40
2009,04,26,09,17,9.40
2009,04,26,09,18,9.40
2009,04,26,09,19,9.40
2009,04,26,09,20,9.40
2009,04,26,09,21,9.40
2009,04,26,09,22,9.40
2009,04,26,09,23,9.40
2009,04,26,09,24,9.40
2009,04,26,09,25,9.40
2009,04,26,09,26,9.40
2009,04,26,09,27,9.40
2009,04,26,09,28,9.40
2009,04,26,09,29,9.40
2009,04,26,09,30,9.40
2009,04,26,09,31,9.40
2009,04,26,09,32,9.40
2009,04,26,09,33,9.50
2009,04,26,09,34,9.50
2009,04,26,09,35,9.50
2009,04,26,09,36,9.50
2009,04,26,09,37,9.50
2009,04,26,09,38,9.50
2009,04,26,09,39,9.50
2009,04,26,09,40,9.50
2009,04,26,09,41,9.50
2009,04,26,09,42,9.50
2009,04,26,09,43,9.40
2009,04,26,09,44,9.50
2009,04,26,09,45,9.50
2009,04,26,09,46,9.50
2009,04,26,09,47,9.60
2009,04,26,09,48,9.60
2009,04,26,09,49,9.60
2009,04,26,09,50,9.60
2009,04,26,09,51,9.60
2009,04,26,09,52,9.60
2009,04,26,09,53,9.60
2009,04,26,09,54,9.70
2009,04,26,09,55,9.70
2009,04,26,09,56,9.70
2009,04,26,09,57,9.70
2009,04,26,09,58,9.70
2009,04,26,09,59,9.80
2009,04,26,10,00,9.80
2009,04,26,10,01,9.90
2009,04,26,10,02,9.90
2009,04,26,10,03,9.90
2009,04,26,10,04,10.00
2009,04,26,10,05,10.00
2009,04,26,10,06,10.00
2009,04,26,10,07,10.10
2009,04,26,10,08,10.10
2009,04,26,10,09,10.20
2009,04,26,10,10,10.20
2009,04,26,10,11,10.20
2009,04,26,10,12,10.20
2009,04,26,10,13,10.20
2009,04,26,10,14,10.20
2009,04,26,10,15,10.20
2009,04,26,10,16,10.20
2009,04,26,10,17,10.20
2009,04,26,10,18,10.20
2009,04,26,10,19,10.20
2009,04,26,10,20,10.20
2009,04,26,10,21,10.30
2009,04,26,10,22,10.30
2009,04,26,10,23,10.30
2009,04,26,10,24,10.40
2009,04,26,10,25,10.40
2009,04,26,10,26,10.40
2009,04,26,10,27,10.40
2009,04,26,10,28,10.40
2009,04,26,10,29,10.40
2009,04,26,10,30,10.40
2009,04,26,10,31,10.40
2009,04,26,10,32,10.50
2009,04,26,10,33,10.50
2009,04,26,10,34,10.50
2009,04,26,10,35,10.60
2009,04,26,10,36,10.60
2009,04,26,10,37,10.60
2009,04,26,10,38,10.60
2009,04,26,10,39,10.50
2009,04,26,10,40,10.50
2009,04,26,10,41,10.50
2009,04,26,10,42,10.40
2009,04,26,10,43,10.40
2009,04,26,10,44,10.40
2009,04,26,10,45,10.40
2009,04,26,10,46,10.40
2009,04,26,10,47,10.40
2009,04,26,10,48,10.40
2009,04,26,10,49,10.40
2009,04,26,10,50,10.40
2009,04,26,10,51,10.40
2009,04,26,10,52,10.50
2009,04,26,10,53,10.50
2009,04,26,10,54,10.60
2009,04,26,10,55,10.60
2009,04,26,10,56,10.60
2009,04,26,10,57,10.70
2009,04,26,10,58,10.70
2009,04,26,10,59,10.70
2009,04,26,11,00,10.70
2009,04,26,11,01,10.70
2009,04,26,11,02,10.70
2009,04,26,11,03,10.70
2009,04,26,11,04,10.70
2009,04,26,11,05,10.70
2009,04,26,11,06,10.70
2009,04,26,11,07,10.80
2009,04,26,11,08,10.80
2009,04,26,11,09,10.80
2009,04,26,11,10,10.80
2009,04,26,11,11,10.80
2009,04,26,11,12,10.80
2009,04,26,11,13,10.90
2009,04,26,11,14,10.90
2009,04,26,11,15,10.90
2009,04,26,11,16,10.90
2009,04,26,11,17,10.90
2009,04,26,11,18,10.90
2009,04,26,11,19,10.90
2009,04,26,11,20,10.90
2009,04,26,11,21,10.90
2009,04,26,11,22,10.80
2009,04,26,11,23,10.80
2009,04,26,11,24,10.80
2009,04,26,11,25,10.80
2009,04,26,11,26,10.80
2009,04,26,11,27,10.80
2009,04,26,11,28,10.80
2009,04,26,11,29,10.80
2009,04,26,11,30,10.70
2009,04,26,11,31,10.70
2009,04,26,11,32,10.70
2009,04,26,11,33,10.60
2009,04,26,11,34,10.60
2009,04,26,11,35,10.60
2009,04,26,11,36,10.60
2009,04,26,11,37,10.50
2009,04,26,11,38,10.40
2009,04,26,11,39,10.40
2009,04,26,11,40,10.40
2009,04,26,11,41,10.40
2009,04,26,11,42,10.40
2009,04,26,11,43,10.40
2009,04,26,11,44,10.40
2009,04,26,11,45,10.40
2009,04,26,11,46,10.50
2009,04,26,11,47,10.50
2009,04,26,11,48,10.60
2009,04,26,11,49,10.60
2009,04,26,11,50,10.60
2009,04,26,11,51,10.60
2009,04,26,11,52,10.70
2009,04,26,11,53,10.70
2009,04,26,11,54,10.70
2009,04,26,11,55,10.70
2009,04,26,11,56,10.80
2009,04,26,11,57,10.80
2009,04,26,11,58,10.90
2009,04,26,11,59,11.00
2009,04,26,12,00,10.90
2009,04,26,12,01,10.90
2009,04,26,12,02,10.80
2009,04,26,12,03,10.80
2009,04,26,12,04,10.80
2009,04,26,12,05,10.80
2009,04,26,12,06,10.90
2009,04,26,12,07,10.90
2009,04,26,12,08,11.00
2009,04,26,12,09,11.00
2009,04,26,12,10,11.10
2009,04,26,12,11,11.10
2009,04,26,12,12,11.20
2009,04,26,12,13,11.20
2009,04,26,12,14,11.20
2009,04,26,12,15,11.20
2009,04,26,12,16,11.20
2009,04,26,12,17,11.20
2009,04,26,12,18,11.20
2009,04,26,12,19,11.10
2009,04,26,12,20,11.10
2009,04,26,12,21,11.10
2009,04,26,12,22,11.10
2009,04,26,12,23,11.10
2009,04,26,12,24,11.10
2009,04,26,12,25,11.10
2009,04,26,12,26,11.10
2009,04,26,12,27,11.10
2009,04,26,12,28,11.10
2009,04,26,12,29,11.20
2009,04,26,12,30,11.20
2009,04,26,12,31,11.20
2009,04,26,12,32,11.20
2009,04,26,12,33,11.20
2009,04,26,12,34,11.30
2009,04,26,12,35,11.30
2009,04,26,12,36,11.30
2009,04,26,12,37,11.40
2009,04,26,12,38,11.40
2009,04,26,12,39,11.40
2009,04,26,12,40,11.40
2009,04,26,12,41,11.40
2009,04,26,12,42,11.50
2009,04,26,12,43,11.50
2009,04,26,12,44,11.50
2009,04,26,12,45,11.40
2009,04,26,12,46,11.40
2009,04,26,12,47,11.40
2009,04,26,12,48,11.30
2009,04,26,12,49,11.20
2009,04,26,12,50,11.20
2009,04,26,12,51,11.20
2009,04,26,12,52,11.30
2009,04,26,12,53,11.30
2009,04,26,12,54,11.40
2009,04,26,12,55,11.50
2009,04,26,12,56,11.70
2009,04,26,12,57,11.70
2009,04,26,12,58,11.80
2009,04,26,12,59,11.90
2009,04,26,13,00,12.00
2009,04,26,13,01,12.10
2009,04,26,13,02,12.20
2009,04,26,13,03,12.40
2009,04,26,13,04,12.50
2009,04,26,13,05,12.60
2009,04,26,13,06,12.70
2009,04,26,13,07,12.80
2009,04,26,13,08,12.90
2009,04,26,13,09,12.90
2009,04,26,13,10,12.90
2009,04,26,13,11,12.80
2009,04,26,13,12,12.80
2009,04,26,13,13,12.70
2009,04,26,13,14,12.70
2009,04,26,13,15,12.60
2009,04,26,13,16,12.70
2009,04,26,13,17,12.70
2009,04,26,13,18,12.70
2009,04,26,13,19,12.50
2009,04,26,13,20,12.50
2009,04,26,13,21,12.50
2009,04,26,13,22,12.60
2009,04,26,13,23,12.60
2009,04,26,13,24,12.70
2009,04,26,13,25,12.70
2009,04,26,13,26,12.80
2009,04,26,13,27,12.80
2009,04,26,13,28,12.90
2009,04,26,13,29,12.90
2009,04,26,13,30,12.90
2009,04,26,13,31,12.90
2009,04,26,13,32,12.90
2009,04,26,13,33,12.90
2009,04,26,13,34,12.90
2009,04,26,13,35,12.80
2009,04,26,13,36,12.80
2009,04,26,13,37,12.80
2009,04,26,13,38,12.80
2009,04,26,13,39,12.80
2009,04,26,13,40,12.80
2009,04,26,13,41,12.80
2009,04,26,13,42,12.80
2009,04,26,13,43,12.80
2009,04,26,13,44,12.80
2009,04,26,13,45,12.80
2009,04,26,13,46,12.80
2009,04,26,13,47,12.80
2009,04,26,13,48,12.80
2009,04,26,13,49,12.70
2009,04,26,13,50,12.60
2009,04,26,13,51,12.50
2009,04,26,13,52,12.50
2009,04,26,13,53,12.30
2009,04,26,13,54,12.30
2009,04,26,13,55,12.30
2009,04,26,13,56,12.30
2009,04,26,13,57,12.30
2009,04,26,13,58,12.40
2009,04,26,13,59,12.40
2009,04,26,14,00,12.60
2009,04,26,14,01,12.60
2009,04,26,14,02,12.70
2009,04,26,14,03,12.70
2009,04,26,14,04,12.70
2009,04,26,14,05,12.70
2009,04,26,14,06,12.80
2009,04,26,14,07,12.80
2009,04,26,14,08,12.90
2009,04,26,14,09,12.90
2009,04,26,14,10,13.00
2009,04,26,14,11,13.00
2009,04,26,14,12,13.10
2009,04,26,14,13,13.20
2009,04,26,14,14,13.30
2009,04,26,14,15,13.40
2009,04,26,14,16,13.50
2009,04,26,14,17,13.60
2009,04,26,14,18,13.60
2009,04,26,14,19,13.60
2009,04,26,14,20,13.70
2009,04,26,14,21,13.80
2009,04,26,14,22,13.90
2009,04,26,14,23,13.90
2009,04,26,14,24,14.10
2009,04,26,14,25,14.10
2009,04,26,14,26,14.10
2009,04,26,14,27,14.10
2009,04,26,14,28,14.10
2009,04,26,14,29,14.10
2009,04,26,14,30,14.10
2009,04,26,14,31,14.10
2009,04,26,14,32,14.10
2009,04,26,14,33,14.00
2009,04,26,14,34,14.00
2009,04,26,14,35,14.00
2009,04,26,14,36,14.00
2009,04,26,14,37,13.90
2009,04,26,14,38,13.90
2009,04,26,14,39,13.80
2009,04,26,14,40,13.80
2009,04,26,14,41,13.80
2009,04,26,14,42,13.80
2009,04,26,14,43,13.70
2009,04,26,14,44,13.50
2009,04,26,14,45,13.40
2009,04,26,14,46,13.20
2009,04,26,14,47,13.00
2009,04,26,14,48,13.00
2009,04,26,14,49,12.90
2009,04,26,14,50,12.80
2009,04,26,14,51,12.70
2009,04,26,14,52,12.70
2009,04,26,14,53,12.70
2009,04,26,14,54,12.70
2009,04,26,14,55,12.70
2009,04,26,14,56,12.70
2009,04,26,14,57,12.70
2009,04,26,14,58,12.70
2009,04,26,14,59,12.80
2009,04,26,15,00,12.80
2009,04,26,15,01,12.80
2009,04,26,15,02,12.90
2009,04,26,15,03,12.90
2009,04,26,15,04,12.90
2009,04,26,15,05,12.90
2009,04,26,15,06,13.00
2009,04,26,15,07,13.00
2009,04,26,15,08,13.00
2009,04,26,15,09,13.00
2009,04,26,15,10,13.00
2009,04,26,15,11,12.90
2009,04,26,15,12,12.90
2009,04,26,15,13,12.90
2009,04,26,15,14,12.90
2009,04,26,15,15,12.90
2009,04,26,15,16,12.80
2009,04,26,15,17,12.80
2009,04,26,15,18,12.80
2009,04,26,15,19,12.70
2009,04,26,15,20,12.70
2009,04,26,15,21,12.70
2009,04,26,15,22,12.70
2009,04,26,15,23,12.70
2009,04,26,15,24,12.80
2009,04,26,15,25,12.80
2009,04,26,15,26,12.80
2009,04,26,15,27,12.80
2009,04,26,15,28,12.80
2009,04,26,15,29,12.80
2009,04,26,15,30,12.80
2009,04,26,15,31,12.70
2009,04,26,15,32,12.70
2009,04,26,15,33,12.60
2009,04,26,15,34,12.60
2009,04,26,15,35,12.60
2009,04,26,15,36,12.50
2009,04,26,15,37,12.50
2009,04,26,15,38,12.50
2009,04,26,15,39,12.50
2009,04,26,15,40,12.50
2009,04,26,15,41,12.50
2009,04,26,15,42,12.50
2009,04,26,15,43,12.50
2009,04,26,15,44,12.60
2009,04,26,15,45,12.60
2009,04,26,15,46,12.60
2009,04,26,15,47,12.60
2009,04,26,15,48,12.50
2009,04,26,15,49,12.50
2009,04,26,15,50,12.40
2009,04,26,15,51,12.40
2009,04,26,15,52,12.40
2009,04,26,15,53,12.40
2009,04,26,15,54,12.40
2009,04,26,15,55,12.40
2009,04,26,15,56,12.40
2009,04,26,15,57,12.40
2009,04,26,15,58,12.50
2009,04,26,15,59,12.50
2009,04,26,16,00,12.60
2009,04,26,16,01,12.60
2009,04,26,16,02,12.60
2009,04,26,16,03,12.70
2009,04,26,16,04,12.70
2009,04,26,16,05,12.70
2009,04,26,16,06,12.80
2009,04,26,16,07,12.70
2009,04,26,16,08,12.80
2009,04,26,16,09,12.70
2009,04,26,16,10,12.70
2009,04,26,16,11,12.70
2009,04,26,16,12,12.70
2009,04,26,16,13,12.60
2009,04,26,16,14,12.60
2009,04,26,16,15,12.60
2009,04,26,16,16,12.60
2009,04,26,16,17,12.70
2009,04,26,16,18,12.70
2009,04,26,16,19,12.70
2009,04,26,16,20,12.70
2009,04,26,16,21,12.80
2009,04,26,16,22,12.80
2009,04,26,16,23,12.80
2009,04,26,16,24,12.80
2009,04,26,16,25,12.80
2009,04,26,16,26,12.80
2009,04,26,16,27,12.80
2009,04,26,16,28,12.80
2009,04,26,16,29,12.70
2009,04,26,16,30,12.70
2009,04,26,16,31,12.70
2009,04,26,16,32,12.70
2009,04,26,16,33,12.70
2009,04,26,16,34,12.70
2009,04,26,16,35,12.70
2009,04,26,16,36,12.70
2009,04,26,16,37,12.70
2009,04,26,16,38,12.70
2009,04,26,16,39,12.70
2009,04,26,16,40,12.70
2009,04,26,16,41,12.70
2009,04,26,16,42,12.70
2009,04,26,16,43,12.70
2009,04,26,16,44,12.70
2009,04,26,16,45,12.70
2009,04,26,16,46,12.70
2009,04,26,16,47,12.70
2009,04,26,16,48,12.70
2009,04,26,16,49,12.70
2009,04,26,16,50,12.70
2009,04,26,16,51,12.70
2009,04,26,16,52,12.80
2009,04,26,16,53,12.80
2009,04,26,16,54,12.80
2009,04,26,16,55,12.80
2009,04,26,16,56,12.80
2009,04,26,16,57,12.80
2009,04,26,16,58,12.80
2009,04,26,16,59,12.80
2009,04,26,17,00,12.80
2009,04,26,17,01,12.90
2009,04,26,17,02,12.90
2009,04,26,17,03,12.90
2009,04,26,17,04,12.90
2009,04,26,17,05,12.90
2009,04,26,17,06,12.90
2009,04,26,17,07,12.90
2009,04,26,17,08,12.90
2009,04,26,17,09,12.90
2009,04,26,17,10,12.80
2009,04,26,17,11,12.80
2009,04,26,17,12,12.80
2009,04,26,17,13,12.80
2009,04,26,17,14,12.80
2009,04,26,17,15,12.80
2009,04,26,17,16,12.80
2009,04,26,17,17,12.80
2009,04,26,17,18,12.80
2009,04,26,17,19,12.80
2009,04,26,17,20,12.80
2009,04,26,17,21,12.80
2009,04,26,17,22,12.80
2009,04,26,17,23,12.80
2009,04,26,17,24,12.80
2009,04,26,17,25,12.80
2009,04,26,17,26,12.80
2009,04,26,17,27,12.80
2009,04,26,17,28,12.80
2009,04,26,17,29,12.80
2009,04,26,17,30,12.90
2009,04,26,17,31,12.80
2009,04,26,17,32,12.90
2009,04,26,17,33,12.80
2009,04,26,17,34,12.90
2009,04,26,17,35,12.80
2009,04,26,17,36,12.80
2009,04,26,17,37,12.80
2009,04,26,17,38,12.80
2009,04,26,17,39,12.80
2009,04,26,17,40,12.80
2009,04,26,17,41,12.80
2009,04,26,17,42,12.70
2009,04,26,17,43,12.70
2009,04,26,17,44,12.70
2009,04,26,17,45,12.70
2009,04,26,17,46,12.70